Location: Rioux
(40.7500°S, 175.7500°E)
Time: 10:32:00
(UTC+00:00)

SMAP - Pass Details

Date: 12 June 2024
Orbit: 681 x 683 km, 98.1° (Epoch: 21 July)

Event Time Altitude Azimuth Distance (km) Brightness Sun altitude
Rises 18:10:07 0° 358° (N) 3,035 6.6 -16.2°
Reaches altitude 10° 18:12:25 10° 351° (N) 2,128 5.7 -15.7°
Maximum altitude 18:16:52 44° 279° (W) 950 3.4 -14.9°
Enters shadow 18:21:03 12° 208° (SSW) 2,025 5.1 -14.2°
